Fairfield, IL

6:55 PM CST on December 08, 2016 (GMT -0600)
Fairfield Municipal

Weather History for KFWC - November, 2011

Change the Weather History Date:

Thursday, November 17, 2011

  Actual Average (KMVN) Record (KMVN)
Temperature  
Mean Temperature 37 °F -  
Max Temperature 44 °F 52 °F 77 °F (2016)
Min Temperature 30 °F 33 °F 12 °F (1997)
Degree Days  
Heating Degree Days 28    
Moisture  
Dew Point 14 °F    
Average Humidity 43    
Maximum Humidity 86    
Minimum Humidity 15    
Precipitation  
Precipitation 0.00 in - - ()
Sea Level Pressure  
Sea Level Pressure 30.31 in    
Wind  
Wind Speed 3 mph (NW)    
Max Wind Speed 13 mph    
Max Gust Speed 16 mph    
Visibility 10 miles    
Events      
Averages and records for this station are not official NWS values.
T = Trace of Precipitation, MM = Missing Value Source: NWS Daily Summary

Daily Weather History Graph

Daily Weather History Graph

Search for Another Location

Airport or City:

Trip Planner

Search our weather history database for the weather conditions in past years. The results will help you decide how hot, cold, wet, or windy it might be!

Date:

Astronomy

Nov. 17, 2011 Rise Set
Actual Time 6:37 AM CST 4:39 PM CST
Civil Twilight 6:08 AM CST 5:08 PM CST
Nautical Twilight 5:36 AM CST 5:40 PM CST
Astronomical Twilight 5:05 AM CST 6:11 PM CST
Moon 10:58 PM CST (11/17) 11:47 AM CST (11/17)
Length of Visible Light 10h 59m
Length of Day
10h 02m
Waning Gibbous, 59% of the Moon is Illuminated
Nov 17
Waning Gibbous
Nov 18
Last Quarter
Nov 25
New
Dec 2
First Quarter
Dec 10
Full

Hourly Weather History & Observations

Time (CST) Temp. Windchill Dew Point Humidity Pressure Visibility Wind Dir Wind Speed Gust Speed Precip Events Conditions
12:15 AM 39.2 °F - 21.2 °F 49% 30.23 in 10.0 mi Calm Calm - N/A   Overcast
12:35 AM 39.2 °F 37.0 °F 21.2 °F 49% 30.23 in 10.0 mi NNW 3.5 mph - N/A   Mostly Cloudy
12:55 AM 39.2 °F 35.9 °F 21.2 °F 49% 30.23 in 10.0 mi NNW 4.6 mph - N/A   Overcast
1:15 AM 39.2 °F 37.0 °F 21.2 °F 49% 30.23 in 10.0 mi NNW 3.5 mph - N/A   Overcast
1:17 AM 39.2 °F 37.0 °F 21.2 °F 49% 30.23 in 10.0 mi NNW 3.5 mph - N/A   Overcast
1:37 AM 39.2 °F 37.0 °F 21.2 °F 49% 30.23 in 10.0 mi NW 3.5 mph - N/A   Unknown
1:57 AM 39.2 °F 37.0 °F 21.2 °F 49% 30.24 in 10.0 mi NNW 3.5 mph - N/A   Unknown
2:15 AM 37.4 °F 34.9 °F 21.2 °F 52% 30.24 in 10.0 mi NW 3.5 mph - N/A   Overcast
2:17 AM 37.4 °F 33.8 °F 21.2 °F 52% 30.25 in 10.0 mi NW 4.6 mph - N/A   Overcast
2:35 AM 37.4 °F 34.9 °F 21.2 °F 52% 30.25 in 10.0 mi NW 3.5 mph - N/A   Unknown
2:55 AM 37.4 °F 34.9 °F 21.2 °F 52% 30.25 in 10.0 mi WNW 3.5 mph - N/A   Unknown
3:15 AM 37.4 °F 34.9 °F 21.2 °F 52% 30.25 in 10.0 mi NW 3.5 mph - N/A   Overcast
3:35 AM 37.4 °F 34.9 °F 21.2 °F 52% 30.26 in 10.0 mi NW 3.5 mph - N/A   Overcast
3:55 AM 35.6 °F - 21.2 °F 56% 30.26 in 10.0 mi Calm Calm - N/A   Mostly Cloudy
4:15 AM 35.6 °F - 21.2 °F 56% 30.27 in 10.0 mi Calm Calm - N/A   Mostly Cloudy
4:35 AM 35.6 °F - 21.2 °F 56% 30.27 in 10.0 mi Calm Calm - N/A   Unknown
4:55 AM 35.6 °F - 21.2 °F 56% 30.28 in 10.0 mi Calm Calm - N/A   Unknown
5:15 AM 33.8 °F - 21.2 °F 60% 30.28 in 10.0 mi Calm Calm - N/A   Unknown
5:35 AM 33.8 °F - 23.0 °F 65% 30.28 in 10.0 mi Calm Calm - N/A   Clear
5:55 AM 30.2 °F - 24.8 °F 80% 30.29 in 10.0 mi Calm Calm - N/A   Unknown
6:15 AM 30.2 °F - 24.8 °F 80% 30.29 in 10.0 mi Calm Calm - N/A   Unknown
6:35 AM 30.2 °F - 24.8 °F 80% 30.30 in 10.0 mi Calm Calm - N/A   Unknown
6:55 AM 30.2 °F - 24.8 °F 80% 30.31 in 10.0 mi Calm Calm - N/A   Unknown
7:15 AM 33.8 °F 30.8 °F 21.2 °F 60% 30.32 in 10.0 mi WNW 3.5 mph - N/A   Unknown
7:35 AM 33.8 °F - 21.2 °F 60% 30.32 in 10.0 mi Calm Calm - N/A   Unknown
7:55 AM 35.6 °F 30.7 °F 21.2 °F 56% 30.32 in 10.0 mi WNW 5.8 mph - N/A   Unknown
8:15 AM 35.6 °F 31.7 °F 21.2 °F 56% 30.33 in 10.0 mi WNW 4.6 mph - N/A   Unknown
8:55 AM 39.2 °F 35.0 °F 19.4 °F 45% 30.34 in 10.0 mi NNW 5.8 mph - N/A   Clear
9:15 AM 39.2 °F 32.0 °F 12.2 °F 33% 30.35 in 10.0 mi NNW 11.5 mph 16.1 mph N/A   Unknown
9:35 AM 39.2 °F 32.5 °F 10.4 °F 31% 30.35 in 10.0 mi NNW 10.4 mph - N/A   Unknown
9:55 AM 41.0 °F 35.8 °F 8.6 °F 26% 30.35 in 10.0 mi NW 8.1 mph - N/A   Unknown
10:15 AM 41.0 °F 35.8 °F 6.8 °F 24% 30.36 in 10.0 mi NW 8.1 mph - N/A   Unknown
10:35 AM 42.8 °F 38.0 °F 3.2 °F 19% 30.35 in 10.0 mi NW 8.1 mph - N/A   Clear
10:55 AM 42.8 °F 37.5 °F 3.2 °F 19% 30.35 in 10.0 mi WNW 9.2 mph - N/A   Clear
11:15 AM 42.8 °F 37.5 °F 3.2 °F 19% 30.35 in 10.0 mi NNW 9.2 mph - N/A   Clear
11:35 AM 42.8 °F 37.5 °F 3.2 °F 19% 30.34 in 10.0 mi NW 9.2 mph 16.1 mph N/A   Unknown
11:55 AM 44.6 °F 40.2 °F 3.2 °F 18% 30.33 in 10.0 mi NW 8.1 mph 16.1 mph N/A   Unknown
12:15 PM 44.6 °F 38.4 °F 1.4 °F 17% 30.33 in 10.0 mi WNW 12.7 mph 16.1 mph N/A   Unknown
12:35 PM 44.6 °F 39.2 °F 1.4 °F 17% 30.33 in 10.0 mi WNW 10.4 mph - N/A   Unknown
12:55 PM 44.6 °F 40.7 °F 1.4 °F 17% 30.32 in 10.0 mi NW 6.9 mph - N/A   Unknown
1:15 PM 44.6 °F 39.2 °F -0.4 °F 15% 30.32 in 10.0 mi WNW 10.4 mph 16.1 mph N/A   Unknown
1:35 PM 44.6 °F 39.7 °F 1.4 °F 17% 30.33 in 10.0 mi West 9.2 mph 16.1 mph N/A   Clear
1:55 PM 44.6 °F 39.7 °F 1.4 °F 17% 30.32 in 10.0 mi WNW 9.2 mph 16.1 mph N/A   Clear
2:15 PM 44.6 °F 40.2 °F 1.4 °F 17% 30.32 in 10.0 mi WNW 8.1 mph - N/A   Clear
2:35 PM 44.6 °F 40.2 °F 3.2 °F 18% 30.32 in 10.0 mi West 8.1 mph - N/A   Clear
2:55 PM 44.6 °F 40.2 °F 3.2 °F 18% 30.33 in 10.0 mi West 8.1 mph - N/A   Unknown
3:15 PM 44.6 °F 39.7 °F 1.4 °F 17% 30.33 in 10.0 mi WNW 9.2 mph - N/A   Clear
3:35 PM 44.6 °F 40.7 °F 1.4 °F 17% 30.33 in 10.0 mi WNW 6.9 mph - N/A   Clear
3:55 PM 44.6 °F 42.2 °F -0.4 °F 15% 30.33 in 10.0 mi WNW 4.6 mph - N/A   Clear
4:15 PM 42.8 °F 41.1 °F 1.4 °F 18% 30.33 in 10.0 mi WNW 3.5 mph - N/A   Clear
4:35 PM 42.8 °F - 1.4 °F 18% 30.33 in 10.0 mi Calm Calm - N/A   Clear
4:55 PM 39.2 °F - 6.8 °F 26% 30.33 in 10.0 mi Calm Calm - N/A   Clear
5:15 PM 39.2 °F - 5.0 °F 24% 30.33 in 10.0 mi Calm Calm - N/A   Clear
5:35 PM 35.6 °F - 23.0 °F 60% 30.34 in 10.0 mi Calm Calm - N/A   Clear
5:55 PM 35.6 °F - 15.8 °F 44% 30.34 in 10.0 mi Calm Calm - N/A   Clear
6:15 PM 33.8 °F - 19.4 °F 56% 30.34 in 10.0 mi Calm Calm - N/A   Clear
6:35 PM 33.8 °F - 24.8 °F 70% 30.34 in 10.0 mi Calm Calm - N/A   Clear
6:55 PM 33.8 °F - 19.4 °F 56% 30.34 in 10.0 mi Calm Calm - N/A   Clear
7:15 PM 32.0 °F - 23.0 °F 69% 30.34 in 10.0 mi Calm Calm - N/A   Clear
7:35 PM 32.0 °F - 19.4 °F 60% 30.35 in 10.0 mi Calm Calm - N/A   Clear
7:55 PM 30.2 °F - 26.6 °F 86% 30.35 in 10.0 mi Calm Calm - N/A   Clear
8:15 PM 30.2 °F - 19.4 °F 64% 30.35 in 10.0 mi Calm Calm - N/A   Clear
8:35 PM 30.2 °F - 21.2 °F 69% 30.35 in 10.0 mi Calm Calm - N/A   Clear
8:55 PM 28.4 °F - 21.2 °F 74% 30.34 in 10.0 mi Calm Calm - N/A   Clear
9:15 PM 30.2 °F - 23.0 °F 75% 30.34 in 10.0 mi Calm Calm - N/A   Clear
9:35 PM 32.0 °F - 19.4 °F 60% 30.34 in 10.0 mi Calm Calm - N/A   Clear
9:55 PM 30.2 °F - 21.2 °F 69% 30.34 in 10.0 mi Calm Calm - N/A   Clear
10:35 PM 32.0 °F - 17.6 °F 55% 30.34 in 10.0 mi Calm Calm - N/A   Clear
10:55 PM 30.2 °F - 17.6 °F 60% 30.33 in 10.0 mi Calm Calm - N/A   Clear
11:15 PM 30.2 °F - 17.6 °F 60% 30.32 in 10.0 mi Calm Calm - N/A   Clear
11:35 PM 32.0 °F - 15.8 °F 51% 30.32 in 10.0 mi Calm Calm - N/A   Clear
11:55 PM 33.8 °F - 14.0 °F 44% 30.31 in 10.0 mi Calm Calm - N/A   Clear